Regional Weather Roundup
Issued by NWS

Home | Current Version | Previous Version | Text Only | Print | Product List | Glossary On
Versions: 1 2 3 4 5 6 7 8 9 10 11 12 13 14 15 16 17 18 19 20 21 22 23 24 25 26 27 28 29 30 31 32 33 34 35 36 37 38 39 40 41 42 43 44 45 46 47 48 49 50
000
ASUS43 KLSX 262059
RWRMO

WEATHER SUMMARY FOR MISSOURI
NATIONAL WEATHER SERVICE SPRINGFIELD MO
400 PM CDT TUE AUG 26 2014

NOTE: "FAIR" INDICATES FEW OR NO CLOUDS BELOW 12,000 FEET WITH NO
       SIGNIFICANT WEATHER AND/OR OBSTRUCTIONS TO VISIBILITY.
       CURRENT SKY AND/OR WEATHER CONDITIONS ARE NOT AVAILABLE FOR
       CHILLICOTHE AND FARMINGTON.

MOZ001>031-035>038-043-044-053-054-262200-
...NORTHERN AND WESTERN MISSOURI...

CITY           SKY/WX    TMP DP  RH WIND       PRES   REMARKS
KANSAS CTY INT MOSUNNY   88  70  55 VRB3      30.07F HX  93
KANSAS C DTWN  MOSUNNY   92  70  48 NE5       30.05F HX  97
LEE`S SUMMIT   SUNNY     91  71  51 VRB3      30.07F HX  97
ST JOSEPH      MOSUNNY   87  70  56 CALM      30.08F HX  92
KIRKSVILLE     MOSUNNY   86  71  60 NE6       30.10F HX  91

$$
MOZ066>068-077>081-088>096-101>105-262200-
...SOUTHWEST MISSOURI...

CITY           SKY/WX    TMP DP  RH WIND       PRES   REMARKS
SPRINGFIELD    MOSUNNY   98  61  29 SW9       30.04F HX  98
JOPLIN         MOSUNNY   98  63  31 VRB6      30.04F HX 100

$$
MOZ032>034-039>042-045>050-055>058-069>072-262200-
...CENTRAL MISSOURI...

CITY           SKY/WX    TMP DP  RH WIND       PRES   REMARKS
COLUMBIA       SUNNY     94  72  48 N6        30.05F HX 102
JEFFERSON CITY SUNNY     96  72  45 W5        30.02F HX 104
ROLLA          MOSUNNY   80  66  62 S14G31    30.07S THUNDER
SEDALIA        SUNNY     94  70  45 CALM      30.06F HX 100
OSAGE BEACH    SUNNY     95  70  43 NE6       30.04F HX 101

$$
MOZ051-052-059>065-262200-
...EAST CENTRAL MISSOURI...

CITY           SKY/WX    TMP DP  RH WIND       PRES   REMARKS
ST LOUIS INTL  PTSUNNY   96  76  52 CALM      30.04F HX 109
SPIRIT OF STL  PTSUNNY   96  72  45 CALM      30.02F HX 104
ST CHARLES     SUNNY     94  73  50 CALM      30.02F HX 103

$$
MOZ072>076-082>087-097>100-106>115-262200-
...SOUTH CENTRAL AND SOUTHEAST MISSOURI...

CITY           SKY/WX    TMP DP  RH WIND       PRES   REMARKS
CAPE GIRARDEAU SUNNY     93  73  52 E9        30.03F HX 102
FARMINGTON     MOSUNNY   95  68  41 E3        30.07F HX  99
POPLAR BLUFF   SUNNY     95  69  42 E6        30.02F HX 100
WEST PLAINS    SUNNY     93  64  38 SE5       30.08F HX  94

$$



USA.gov is the U.S. government's official web portal to all federal, state and local government web resources and services.